San Jose, Costa Rica

9:31 PM CST on September 24, 2016 (GMT -0600)
San Jose

Weather History for 78762 - January, 2013

Change the Weather History Date:

Thursday, January 24, 2013

  Actual Average Record
Temperature  
Mean Temperature 75 °F -  
Max Temperature 85 °F - - ()
Min Temperature 65 °F - - ()
Cooling Degree Days 10    
Growing Degree Days 25 (Base 50)    
Moisture  
Dew Point 56 °F    
Average Humidity 53    
Maximum Humidity 73    
Minimum Humidity 28    
Precipitation  
Precipitation 0.00 in - - ()
Sea Level Pressure  
Sea Level Pressure 30.04 in    
Wind  
Wind Speed 11 mph ()    
Max Wind Speed 17 mph    
Max Gust Speed 28 mph    
Visibility 8.3 miles    
Events      
T = Trace of Precipitation, MM = Missing Value Source: Averaged Metar Reports

Daily Weather History Graph

Daily Weather History Graph

Search for Another Location

Airport or City:

Trip Planner

Search our weather history database for the weather conditions in past years. The results will help you decide how hot, cold, wet, or windy it might be!

Date:

Astronomy

Jan. 24, 2013 Rise Set
Actual Time 5:59 AM CST 5:38 PM CST
Civil Twilight 5:37 AM CST 6:00 PM CST
Nautical Twilight 5:11 AM CST 6:26 PM CST
Astronomical Twilight 4:46 AM CST 6:52 PM CST
Moon 3:44 PM CST (1/24) 3:50 AM CST (1/24)
Length of Visible Light 12h 23m
Length of Day
11h 39m
Waxing Gibbous, 94% of the Moon is Illuminated
Jan 24
Waxing Gibbous
Jan 26
Full
Feb 3
Last Quarter
Feb 10
New
Feb 17
First Quarter

Hourly Weather History & Observations

Time (CST) Temp. Heat Index Dew Point Humidity Pressure Visibility Wind Dir Wind Speed Gust Speed Precip Events Conditions
12:00 AM 69 °F - 56 °F 55% 29.92 in 12 mi East 15.0 mph - -  
12:00 AM 68.0 °F - 57.2 °F 68% 30.08 in - East 15.0 mph 26.5 mph N/A   Clear
1:00 AM 68.0 °F - 55.4 °F 64% 30.07 in - East 15.0 mph 26.5 mph N/A   Clear
2:00 AM 68.0 °F - 55.4 °F 64% 30.05 in - ESE 12.7 mph 24.2 mph N/A   Clear
3:00 AM 68 °F - 54 °F 50% 29.87 in 12 mi ESE 11.5 mph - -  
3:00 AM 68.0 °F - 53.6 °F 60% 30.04 in - ESE 11.5 mph 23.0 mph N/A   Clear
4:00 AM 69.8 °F - 51.8 °F 53% 30.04 in - East 11.5 mph 23.0 mph N/A   Clear
5:00 AM 68.0 °F - 53.6 °F 60% 30.06 in - East 9.2 mph 20.7 mph N/A   Clear
6:00 AM 68 °F - 54 °F 50% 30.46 in 12 mi East 17.3 mph - -  
6:00 AM 68.0 °F - 53.6 °F 60% 30.07 in - East 17.3 mph - N/A   Clear
7:00 AM 69.8 °F - 53.6 °F 56% 30.09 in - East 11.5 mph 23.0 mph N/A   Clear
8:00 AM 75.2 °F - 53.6 °F 47% 30.11 in - East 12.7 mph 24.2 mph N/A   Clear
9:00 AM 77 °F - 54 °F 35% 29.95 in 12 mi East 11.5 mph - -  
9:00 AM 77.0 °F - 53.6 °F 44% 30.12 in - East 11.5 mph 23.0 mph N/A   Clear
10:00 AM 80.6 °F 80.3 °F 53.6 °F 39% 30.11 in 6.2 mi East 11.5 mph 24.2 mph N/A   Partly Cloudy
11:00 AM 82.4 °F - 51.8 °F 35% 30.10 in 6.2 mi East 16.1 mph 27.6 mph N/A   Partly Cloudy
12:00 PM 65 °F - 51 °F 52% 29.90 in 12 mi East 11.5 mph - -   Scattered Clouds
12:00 PM 82.4 °F - 51.8 °F 35% 30.08 in 6.2 mi East 11.5 mph 24.2 mph N/A   Partly Cloudy
1:00 PM 84.2 °F 82.8 °F 53.6 °F 35% 30.04 in 6.2 mi East 11.5 mph 23.0 mph N/A   Partly Cloudy
2:00 PM 84.2 °F - 51.8 °F 33% 30.02 in 6.2 mi East 13.8 mph - N/A   Partly Cloudy
3:00 PM 83 °F - 55 °F 28% 29.82 in 12 mi East 12.7 mph - -   Scattered Clouds
3:00 PM 82.4 °F 81.7 °F 55.4 °F 39% 30.00 in 6.2 mi East 12.7 mph - N/A   Partly Cloudy
4:00 PM 82.4 °F 81.7 °F 55.4 °F 39% 30.01 in 6.2 mi ESE 11.5 mph - N/A   Partly Cloudy
5:00 PM 77.0 °F - 59.0 °F 54% 30.02 in 6.2 mi ESE 11.5 mph - N/A   Partly Cloudy
6:00 PM 73 °F - 60 °F 54% 29.89 in 12 mi East 11.5 mph - -   Scattered Clouds
6:00 PM 73.4 °F - 60.8 °F 65% 30.04 in 6.2 mi East 11.5 mph - N/A   Partly Cloudy
7:00 PM 71.6 °F - 60.8 °F 69% 30.07 in 6.2 mi East 11.5 mph - N/A   Partly Cloudy
8:00 PM 69.8 °F - 59.0 °F 68% 30.09 in 6.2 mi East 10.4 mph - N/A   Partly Cloudy
9:00 PM 70 °F - 60 °F 64% 29.94 in 12 mi East 9.2 mph - -   Scattered Clouds
9:00 PM 69.8 °F - 60.8 °F 73% 30.11 in 6.2 mi East 9.2 mph - N/A   Partly Cloudy
10:00 PM 69.8 °F - 59.0 °F 68% 30.11 in 6.2 mi East 11.5 mph - N/A   Partly Cloudy
11:00 PM 68.0 °F - 59.0 °F 73% 30.10 in 6.2 mi ENE 6.9 mph - N/A   Partly Cloudy